Weather History for Hermiston, OR

Change the Weather History Date:

Thursday, November 8, 2012

  Actual Average Record
Temperature  
Mean Temperature 36 °F -  
Max Temperature 45 °F 55 °F 71 °F (1978)
Min Temperature 28 °F 34 °F 11 °F (1936)
Degree Days  
Heating Degree Days 28    
Moisture  
Dew Point 31 °F    
Average Humidity 83    
Maximum Humidity 96    
Minimum Humidity 66    
Precipitation  
Precipitation 0.00 in - - ()
Sea Level Pressure  
Sea Level Pressure 29.81 in    
Wind  
Wind Speed 4 mph (SSW)    
Max Wind Speed 9 mph    
Max Gust Speed -    
Visibility 10 miles    
Events      
Averages and records for this station are not official NWS values.
T = Trace of Precipitation, MM = Missing Value Source: NWS Daily Summary

Daily Weather History Graph

Daily Weather History Graph

Search for Another Location

Airport:

Trip Planner

Search our weather history database for the weather conditions in past years. The results will help you decide how hot, cold, wet, or windy it might be!

Date:

Astronomy

Nov. 08, 2012 Rise Set
Actual Time 6:47 AM PST 4:33 PM PST
Civil Twilight 6:16 AM PST 5:04 PM PST
Nautical Twilight 5:40 AM PST 5:40 PM PST
Astronomical Twilight 5:05 AM PST 6:15 PM PST
Moon 12:30 AM PST (11/8) 1:32 PM PST (11/8)
Length of Visible Light 10h 48m
Length of Day
9h 45m
Waning Crescent, 32% of the Moon is Illuminated
Nov 8
Waning Crescent
Nov 13
New
Nov 20
First Quarter
Nov 28
Full
Dec 6
Last Quarter

Hourly Weather History & Observations

Time (PST) Temp. Windchill Dew Point Humidity Pressure Visibility Wind Dir Wind Speed Gust Speed Precip Events Conditions
12:53 AM 34.0 °F 28.0 °F 30.0 °F 85% 29.92 in 10.0 mi South 6.9 mph - N/A   Clear
1:53 AM 30.0 °F - 27.0 °F 88% 29.91 in 10.0 mi Calm Calm - N/A   Partly Cloudy
2:53 AM 32.0 °F - 30.0 °F 92% 29.89 in 10.0 mi Calm Calm - N/A   Overcast
3:53 AM 33.1 °F 28.7 °F 30.0 °F 89% 29.86 in 10.0 mi SE 4.6 mph - N/A   Overcast
4:53 AM 30.9 °F 25.2 °F 28.0 °F 89% 29.85 in 10.0 mi SE 5.8 mph - N/A   Clear
5:53 AM 28.9 °F - 27.0 °F 92% 29.83 in 10.0 mi Calm Calm - N/A   Clear
6:53 AM 28.9 °F 23.9 °F 27.0 °F 92% 29.83 in 10.0 mi SE 4.6 mph - N/A   Partly Cloudy
7:53 AM 32.0 °F - 30.0 °F 92% 29.82 in 10.0 mi Calm Calm - N/A   Clear
8:53 AM 37.0 °F - 33.1 °F 86% 29.81 in 10.0 mi Calm Calm - N/A   Clear
9:53 AM 39.0 °F - 34.0 °F 82% 29.80 in 10.0 mi Calm Calm - N/A   Overcast
10:53 AM 43.0 °F 39.5 °F 35.1 °F 74% 29.79 in 10.0 mi South 5.8 mph - N/A   Mostly Cloudy
11:53 AM 43.0 °F - 33.1 °F 68% 29.78 in 10.0 mi Calm Calm - N/A   Overcast
12:53 PM 44.1 °F 42.5 °F 34.0 °F 68% 29.77 in 10.0 mi NW 3.5 mph - N/A   Overcast
1:03 PM 44.6 °F 43.1 °F 33.8 °F 66% 29.76 in 10.0 mi NW 3.5 mph - N/A   Overcast
1:29 PM 44.6 °F - 33.8 °F 66% 29.76 in 10.0 mi Calm Calm - N/A   Overcast
1:53 PM 45.0 °F 42.6 °F 35.1 °F 68% 29.77 in 10.0 mi WSW 4.6 mph - N/A   Overcast
2:53 PM 45.0 °F 41.8 °F 35.1 °F 68% 29.77 in 10.0 mi WSW 5.8 mph - N/A   Overcast
3:53 PM 44.1 °F 39.5 °F 35.1 °F 71% 29.77 in 10.0 mi SW 8.1 mph - N/A   Overcast
4:53 PM 41.0 °F 35.2 °F 35.1 °F 79% 29.78 in 10.0 mi SSW 9.2 mph - N/A   Mostly Cloudy
5:53 PM 37.0 °F 32.4 °F 33.1 °F 86% 29.78 in 10.0 mi South 5.8 mph - N/A   Scattered Clouds
6:53 PM 35.1 °F 32.2 °F 32.0 °F 89% 29.77 in 10.0 mi South 3.5 mph - N/A   Clear
7:53 PM 30.9 °F 26.2 °F 30.0 °F 96% 29.78 in 10.0 mi South 4.6 mph - N/A   Clear
8:53 PM 33.1 °F 26.9 °F 30.0 °F 89% 29.79 in 10.0 mi South 6.9 mph - N/A   Clear
9:53 PM 28.9 °F - 27.0 °F 92% 29.80 in 10.0 mi Calm Calm - N/A   Mostly Cloudy
10:53 PM 33.1 °F 30.0 °F 30.0 °F 89% 29.80 in 10.0 mi WSW 3.5 mph - N/A   Mostly Cloudy
11:53 PM 30.0 °F 25.2 °F 28.0 °F 92% 29.81 in 10.0 mi South 4.6 mph - N/A   Scattered Clouds